TimeEST,TemperatureF,Dew PointF,Humidity,Sea Level PressureIn,VisibilityMPH,Wind Direction,Wind SpeedMPH,Gust SpeedMPH,PrecipitationIn,Events,Conditions,WindDirDegrees,DateUTC
12:15 AM,32.0,28.4,87,30.08,10.0,Calm,Calm,-,N/A,,Overcast,0,2013-02-16 05:15:00
12:35 AM,32.0,30.2,93,30.07,10.0,Calm,Calm,-,N/A,,Overcast,0,2013-02-16 05:35:00
12:55 AM,32.0,30.2,93,30.07,10.0,Calm,Calm,-,N/A,,Overcast,0,2013-02-16 05:55:00
1:15 AM,32.0,30.2,93,30.06,10.0,Calm,Calm,-,N/A,,Overcast,0,2013-02-16 06:15:00
1:35 AM,32.0,30.2,93,30.05,10.0,Calm,Calm,-,N/A,,Overcast,0,2013-02-16 06:35:00
1:55 AM,32.0,30.2,93,30.05,10.0,Calm,Calm,-,N/A,,Overcast,0,2013-02-16 06:55:00
2:15 AM,28.4,28.4,100,30.05,10.0,Calm,Calm,-,N/A,,Mostly Cloudy,0,2013-02-16 07:15:00
2:35 AM,32.0,26.6,80,30.04,10.0,WNW,3.5,-,N/A,,Overcast,290,2013-02-16 07:35:00
2:55 AM,32.0,26.6,80,30.03,10.0,NW,4.6,-,N/A,,Overcast,320,2013-02-16 07:55:00
3:15 AM,32.0,26.6,80,30.03,10.0,NW,3.5,-,N/A,,Overcast,310,2013-02-16 08:15:00
3:35 AM,32.0,26.6,80,30.03,10.0,WNW,3.5,-,N/A,,Overcast,300,2013-02-16 08:35:00
3:55 AM,32.0,26.6,80,30.02,10.0,Calm,Calm,-,N/A,,Overcast,0,2013-02-16 08:55:00
4:15 AM,30.2,24.8,80,30.02,10.0,NNW,3.5,-,N/A,,Mostly Cloudy,340,2013-02-16 09:15:00
4:35 AM,30.2,26.6,86,30.01,10.0,Calm,Calm,-,N/A,,Mostly Cloudy,0,2013-02-16 09:35:00
4:55 AM,30.2,24.8,80,30.01,10.0,Calm,Calm,-,N/A,,Overcast,0,2013-02-16 09:55:00
5:15 AM,28.4,26.6,93,30.01,10.0,Calm,Calm,-,N/A,,Overcast,0,2013-02-16 10:15:00
5:35 AM,32.0,24.8,75,30.01,10.0,Calm,Calm,-,N/A,,Overcast,0,2013-02-16 10:35:00
5:55 AM,32.0,23.0,69,30.01,10.0,NNW,6.9,-,N/A,,Overcast,330,2013-02-16 10:55:00
6:15 AM,32.0,23.0,69,30.01,10.0,North,8.1,-,N/A,,Overcast,350,2013-02-16 11:15:00
6:35 AM,30.2,23.0,75,30.01,10.0,NNW,6.9,-,N/A,,Overcast,340,2013-02-16 11:35:00
6:55 AM,30.2,23.0,75,30.01,10.0,NNW,4.6,-,N/A,,Overcast,340,2013-02-16 11:55:00
7:15 AM,28.4,23.0,80,30.01,10.0,NNW,5.8,-,N/A,,Scattered Clouds,340,2013-02-16 12:15:00
7:35 AM,28.4,21.2,74,30.01,10.0,NNW,5.8,-,N/A,,Clear,330,2013-02-16 12:35:00
7:55 AM,28.4,21.2,74,30.01,10.0,NNW,6.9,-,N/A,,Clear,340,2013-02-16 12:55:00
8:15 AM,28.4,21.2,74,30.02,10.0,NNW,6.9,-,N/A,,Clear,330,2013-02-16 13:15:00
8:35 AM,30.2,21.2,69,30.02,10.0,North,5.8,-,N/A,,Partly Cloudy,350,2013-02-16 13:35:00
8:55 AM,30.2,21.2,69,30.02,10.0,NNW,5.8,-,N/A,,Scattered Clouds,340,2013-02-16 13:55:00
9:15 AM,30.2,21.2,69,30.02,10.0,NW,6.9,-,N/A,,Scattered Clouds,320,2013-02-16 14:15:00
9:35 AM,32.0,21.2,64,30.01,10.0,NNW,4.6,-,N/A,,Mostly Cloudy,340,2013-02-16 14:35:00
9:55 AM,32.0,19.4,60,30.01,10.0,North,8.1,-,N/A,,Scattered Clouds,360,2013-02-16 14:55:00
10:15 AM,32.0,17.6,55,30.01,10.0,NNW,5.8,-,N/A,,Scattered Clouds,330,2013-02-16 15:15:00
10:35 AM,32.0,17.6,55,30.02,10.0,North,5.8,-,N/A,,Mostly Cloudy,360,2013-02-16 15:35:00
1:35 PM,33.8,10.4,38,29.99,10.0,NW,10.4,-,N/A,,Mostly Cloudy,310,2013-02-16 18:35:00
1:55 PM,32.0,12.2,44,29.99,10.0,WNW,8.1,17.3,N/A,,Mostly Cloudy,300,2013-02-16 18:55:00
2:15 PM,32.0,12.2,44,29.99,10.0,NW,9.2,-,N/A,,Mostly Cloudy,310,2013-02-16 19:15:00
2:35 PM,32.0,12.2,44,29.99,10.0,WNW,6.9,-,N/A,,Scattered Clouds,290,2013-02-16 19:35:00
2:55 PM,32.0,14.0,48,29.98,10.0,NW,5.8,-,N/A,,Scattered Clouds,310,2013-02-16 19:55:00
3:15 PM,32.0,14.0,48,29.98,10.0,NW,11.5,17.3,N/A,,Scattered Clouds,320,2013-02-16 20:15:00
3:35 PM,30.2,19.4,64,29.99,2.5,WNW,6.9,18.4,0.01,Snow,Light Snow,300,2013-02-16 20:35:00
3:55 PM,30.2,19.4,64,29.99,4.0,West,9.2,-,0.04,,Haze,270,2013-02-16 20:55:00
4:15 PM,28.4,19.4,69,30.00,2.5,NNW,12.7,19.6,0.04,Snow,Light Snow,330,2013-02-16 21:15:00
4:35 PM,28.4,23.0,80,30.00,3.0,West,5.8,-,0.11,Snow,Light Snow,280,2013-02-16 21:35:00
4:55 PM,30.2,19.4,64,30.00,8.0,WNW,5.8,-,0.11,Snow,Light Snow,290,2013-02-16 21:55:00
5:15 PM,32.0,15.8,51,30.00,10.0,NNW,11.5,17.3,N/A,,Clear,330,2013-02-16 22:15:00
5:35 PM,28.4,15.8,59,30.01,10.0,NNW,5.8,-,N/A,,Partly Cloudy,330,2013-02-16 22:35:00
5:55 PM,28.4,19.4,69,30.01,10.0,NW,3.5,-,N/A,,Mostly Cloudy,310,2013-02-16 22:55:00
6:15 PM,28.4,19.4,69,30.02,10.0,West,5.8,-,N/A,,Mostly Cloudy,270,2013-02-16 23:15:00
6:35 PM,24.8,24.8,100,30.03,0.5,WNW,4.6,-,0.93,Snow,Snow,300,2013-02-16 23:35:00
6:55 PM,24.8,21.2,86,30.03,10.0,WSW,3.5,-,0.93,,Overcast,240,2013-02-16 23:55:00
7:15 PM,24.8,21.2,86,30.04,10.0,WSW,3.5,-,N/A,,Overcast,250,2013-02-17 00:15:00
7:35 PM,24.8,19.4,80,30.03,10.0,West,3.5,-,N/A,,Overcast,260,2013-02-17 00:35:00
7:55 PM,24.8,19.4,80,30.04,10.0,West,5.8,-,N/A,,Mostly Cloudy,280,2013-02-17 00:55:00
8:15 PM,24.8,15.8,69,30.04,10.0,West,4.6,-,N/A,,Partly Cloudy,280,2013-02-17 01:15:00
8:35 PM,24.8,14.0,64,30.04,10.0,WNW,6.9,-,N/A,,Partly Cloudy,290,2013-02-17 01:35:00
8:55 PM,24.8,14.0,64,30.04,10.0,West,6.9,-,N/A,,Clear,280,2013-02-17 01:55:00
9:15 PM,24.8,12.2,59,30.05,10.0,West,8.1,-,N/A,,Clear,280,2013-02-17 02:15:00
9:35 PM,24.8,10.4,54,30.05,10.0,WNW,5.8,-,N/A,,Clear,290,2013-02-17 02:35:00
9:55 PM,24.8,10.4,54,30.06,10.0,West,5.8,-,N/A,,Clear,280,2013-02-17 02:55:00
10:15 PM,26.6,8.6,47,30.06,10.0,West,12.7,18.4,N/A,,Mostly Cloudy,280,2013-02-17 03:15:00
10:35 PM,26.6,6.8,43,30.07,10.0,WNW,15.0,21.9,N/A,,Overcast,300,2013-02-17 03:35:00
11:15 PM,24.8,6.8,46,30.07,10.0,NW,12.7,23.0,N/A,,Mostly Cloudy,320,2013-02-17 04:15:00
11:35 PM,24.8,5.0,43,30.08,10.0,WNW,10.4,-,N/A,,Scattered Clouds,290,2013-02-17 04:35:00
11:55 PM,24.8,5.0,43,30.08,10.0,WNW,12.7,23.0,N/A,,Scattered Clouds,290,2013-02-17 04:55:00